Middlebury State AP, Middlebu, VT

1:30 PM EST on November 13, 2019 (GMT -0500)
Middlebury State AP, Middlebu

Weather History for K6B0 - August, 2019

Change the Weather History Date:

Saturday, August 17, 2019

  Actual Average (WUND) Record (WUND)
Temperature  
Mean Temperature 74 °F -  
Max Temperature 81 °F - - (-1)
Min Temperature 67 °F - - (-1)
Cooling Degree Days 9    
Growing Degree Days 24 (Base 50)    
Moisture  
Dew Point 66 °F    
Average Humidity 80    
Maximum Humidity 92    
Minimum Humidity 63    
Precipitation  
Precipitation 0.00 in - - ()
Sea Level Pressure  
Sea Level Pressure 30.00 in    
Wind  
Wind Speed 4 mph ()    
Max Wind Speed 13 mph    
Max Gust Speed 21 mph    
Visibility 10.0 miles    
Events Rain , Thunderstorm    
Averages and records for this station are not official NWS values.
T = Trace of Precipitation, MM = Missing Value Source: Averaged Metar Reports

Daily Weather History Graph

Daily Weather History Graph

Search for Another Location

Airport or City:

Astronomy

Aug. 17, 2019 Rise Set
Actual Time 5:58 AM EDT 7:53 PM EDT
Civil Twilight 5:27 AM EDT 8:24 PM EDT
Nautical Twilight 4:49 AM EDT 9:02 PM EDT
Astronomical Twilight 4:07 AM EDT 9:44 PM EDT
Moon 9:17 PM EDT (8/17) 7:46 AM EDT (8/17)
Length of Visible Light 14h 57m
Length of Day
13h 55m
Waning Gibbous, 96% of the Moon is Illuminated
Aug 17
Waning Gibbous
Aug 23
Last Quarter
Aug 30
New
Sep 5
First Quarter
Sep 14
Full

Hourly Weather History & Observations

Time (EDT) Temp. Heat Index Dew Point Humidity Pressure Visibility Wind Dir Wind Speed Gust Speed Precip Events Conditions
12:16 AM 67.1 °F - 64.2 °F 90% 30.00 in 10.0 mi Calm Calm - N/A   Overcast
12:35 AM 67.1 °F - 64.2 °F 90% 30.00 in 10.0 mi Calm Calm - N/A   Mostly Cloudy
12:36 AM 67.1 °F - 64.2 °F 90% 30.00 in 10.0 mi Calm Calm - N/A   Mostly Cloudy
12:55 AM 67.1 °F - 64.6 °F 92% 29.99 in 10.0 mi Calm Calm - N/A   Mostly Cloudy
12:59 AM 67.5 °F - 64.4 °F 90% 29.99 in 10.0 mi South 3.5 mph - N/A   Mostly Cloudy
1:17 AM 68.7 °F - 64.4 °F 86% 30.01 in 10.0 mi Calm Calm - N/A   Overcast
1:35 AM 68.4 °F - 64.9 °F 89% 30.00 in 10.0 mi Calm Calm - N/A   Overcast
1:55 AM 69.1 °F - 64.0 °F 84% 30.00 in 10.0 mi Calm Calm - N/A   Overcast
1:56 AM 69.1 °F - 64.2 °F 84% 30.00 in 10.0 mi Calm Calm - N/A   Overcast
2:15 AM 68.9 °F - 64.6 °F 86% 30.00 in 10.0 mi Calm Calm - N/A   Overcast
2:39 AM 69.4 °F - 64.2 °F 83% 30.00 in 10.0 mi South 4.6 mph - N/A   Overcast
2:57 AM 70.2 °F - 64.0 °F 81% 30.00 in 10.0 mi Calm Calm - N/A   Overcast
3:16 AM 70.5 °F - 64.4 °F 81% 30.00 in 10.0 mi SSE 4.6 mph - N/A   Overcast
3:35 AM 71.1 °F - 64.8 °F 80% 30.01 in 10.0 mi South 10.4 mph - N/A   Overcast
3:36 AM 71.1 °F - 64.8 °F 80% 30.01 in 10.0 mi South 9.2 mph - N/A   Overcast
3:55 AM 71.1 °F - 65.3 °F 82% 30.00 in 10.0 mi SSE 6.9 mph - N/A Rain Light Rain
3:59 AM 70.9 °F - 65.3 °F 82% 30.00 in 10.0 mi SSE 5.8 mph - N/A Rain Light Rain
4:17 AM 70.7 °F - 65.3 °F 83% 30.00 in 10.0 mi South 4.6 mph - N/A   Overcast
4:35 AM 70.5 °F - 65.3 °F 83% 30.00 in 10.0 mi South 4.6 mph - N/A   Overcast
4:55 AM 69.8 °F - 65.3 °F 86% 30.00 in 10.0 mi South 3.5 mph - N/A   Overcast
4:56 AM 69.8 °F - 65.3 °F 86% 30.00 in 10.0 mi SSE 3.5 mph - N/A   Overcast
5:15 AM 69.8 °F - 65.5 °F 86% 30.01 in 10.0 mi Calm Calm - N/A   Overcast
5:16 AM 69.8 °F - 65.5 °F 86% 30.01 in 10.0 mi Calm Calm - N/A   Overcast
5:39 AM 69.1 °F - 65.5 °F 88% 30.01 in 10.0 mi SSE 3.5 mph - N/A   Overcast
5:57 AM 69.6 °F - 65.3 °F 86% 30.01 in 10.0 mi Calm Calm - N/A   Overcast
6:15 AM 69.8 °F - 64.9 °F 84% 30.01 in 10.0 mi SSE 3.5 mph - N/A   Overcast
6:16 AM 69.8 °F - 65.1 °F 85% 30.01 in 10.0 mi Calm Calm - N/A   Overcast
6:35 AM 69.8 °F - 65.3 °F 86% 30.01 in 10.0 mi South 4.6 mph - N/A   Overcast
6:36 AM 69.8 °F - 65.3 °F 86% 30.01 in 10.0 mi South 4.6 mph - N/A   Overcast
6:55 AM 70.2 °F - 65.3 °F 85% 30.01 in 10.0 mi South 6.9 mph - N/A   Overcast
6:59 AM 70.2 °F - 65.3 °F 85% 30.01 in 10.0 mi South 5.8 mph - N/A   Overcast
7:17 AM 70.3 °F - 65.7 °F 85% 30.01 in 10.0 mi South 4.6 mph - N/A   Overcast
7:35 AM 70.7 °F - 65.7 °F 84% 30.01 in 10.0 mi South 8.1 mph - N/A   Overcast
7:55 AM 70.9 °F - 65.8 °F 84% 30.02 in 10.0 mi South 9.2 mph - N/A   Overcast
7:56 AM 70.9 °F - 65.8 °F 84% 30.02 in 10.0 mi South 8.1 mph - N/A   Overcast
8:15 AM 70.7 °F - 66.2 °F 86% 30.01 in 10.0 mi South 8.1 mph - N/A   Overcast
8:16 AM 70.7 °F - 66.2 °F 86% 30.01 in 10.0 mi South 8.1 mph - N/A   Overcast
8:38 AM 70.7 °F - 66.2 °F 86% 30.02 in 10.0 mi South 6.9 mph - N/A   Overcast
8:56 AM 70.9 °F - 66.4 °F 86% 30.02 in 10.0 mi South 6.9 mph - N/A   Overcast
9:15 AM 71.2 °F - 66.7 °F 86% 30.02 in 10.0 mi South 10.4 mph - N/A   Overcast
9:16 AM 71.2 °F - 66.7 °F 86% 30.02 in 10.0 mi South 10.4 mph - N/A   Overcast
9:35 AM 71.6 °F - 66.9 °F 85% 30.02 in 10.0 mi South 9.2 mph - N/A   Overcast
9:55 AM 72.7 °F - 67.6 °F 84% 30.02 in 10.0 mi South 8.1 mph - N/A   Overcast
9:59 AM 72.5 °F - 67.3 °F 84% 30.02 in 10.0 mi South 8.1 mph 16.1 mph N/A   Overcast
10:17 AM 74.1 °F - 67.6 °F 80% 30.01 in 10.0 mi South 8.1 mph 16.1 mph N/A   Overcast
10:35 AM 75.2 °F - 68.0 °F 78% 30.02 in 10.0 mi South 11.5 mph - N/A   Overcast
10:55 AM 73.6 °F - 66.9 °F 80% 30.02 in 10.0 mi South 9.2 mph - N/A   Mostly Cloudy
10:56 AM 73.6 °F - 66.9 °F 80% 30.02 in 10.0 mi South 10.4 mph - N/A   Mostly Cloudy
11:15 AM 74.8 °F - 66.7 °F 76% 30.01 in 10.0 mi SSW 9.2 mph - N/A   Mostly Cloudy
11:16 AM 74.8 °F - 66.6 °F 75% 30.01 in 10.0 mi South 9.2 mph - N/A   Mostly Cloudy
11:38 AM 75.7 °F - 67.5 °F 75% 30.02 in 10.0 mi SSW 6.9 mph - N/A   Mostly Cloudy
11:57 AM 76.1 °F - 67.5 °F 74% 30.01 in 10.0 mi South 8.1 mph - N/A   Mostly Cloudy
12:15 PM 76.3 °F - 67.5 °F 74% 30.00 in 10.0 mi SSW 5.8 mph - N/A   Mostly Cloudy
12:16 PM 76.6 °F - 67.6 °F 74% 30.00 in 10.0 mi SSW 5.8 mph - N/A   Mostly Cloudy
12:35 PM 77.5 °F - 67.5 °F 71% 30.00 in 10.0 mi South 8.1 mph - N/A   Mostly Cloudy
12:55 PM 78.4 °F - 67.5 °F 69% 30.00 in 10.0 mi South 11.5 mph 16.1 mph N/A   Scattered Clouds
12:59 PM 78.1 °F - 67.1 °F 69% 30.00 in 10.0 mi South 9.2 mph - N/A   Scattered Clouds
1:17 PM 79.9 °F - 67.8 °F 66% 30.00 in 10.0 mi SSW 8.1 mph - N/A   Scattered Clouds
1:35 PM 79.5 °F - 68.0 °F 68% 30.00 in 10.0 mi SSW 9.2 mph - N/A   Mostly Cloudy
1:55 PM 80.4 °F 83.1 °F 68.2 °F 66% 29.99 in 10.0 mi SW 8.1 mph - N/A   Scattered Clouds
1:56 PM 80.6 °F 83.2 °F 68.0 °F 65% 29.99 in 10.0 mi SSW 9.2 mph - N/A   Scattered Clouds
2:15 PM 79.7 °F - 67.1 °F 65% 29.98 in 10.0 mi SSW 5.8 mph 16.1 mph N/A   Scattered Clouds
2:16 PM 79.7 °F - 67.3 °F 66% 29.98 in 10.0 mi South 5.8 mph - N/A   Scattered Clouds
2:39 PM 79.9 °F - 66.9 °F 64% 29.98 in 10.0 mi South 10.4 mph - N/A   Scattered Clouds
2:57 PM 79.9 °F - 67.5 °F 66% 29.97 in 10.0 mi South 9.2 mph - N/A   Scattered Clouds
3:15 PM 80.2 °F 82.6 °F 67.3 °F 64% 29.97 in 10.0 mi South 6.9 mph - N/A   Scattered Clouds
3:35 PM 80.8 °F 83.3 °F 67.5 °F 64% 29.96 in 10.0 mi South 8.1 mph - N/A   Scattered Clouds
3:36 PM 80.8 °F 83.2 °F 67.3 °F 63% 29.96 in 10.0 mi South 6.9 mph - N/A   Scattered Clouds
3:58 PM 81.1 °F 83.7 °F 67.5 °F 63% 29.94 in 10.0 mi South 3.5 mph - N/A   Clear
4:16 PM 81.1 °F 83.7 °F 67.6 °F 63% 29.93 in 10.0 mi South 6.9 mph - N/A   Clear
4:35 PM 79.5 °F - 68.7 °F 69% 29.94 in 10.0 mi Calm Calm - N/A   Clear
4:36 PM 79.3 °F - 68.5 °F 69% 29.94 in 10.0 mi Calm Calm - N/A   Clear
4:55 PM 75.6 °F - 71.2 °F 86% 29.94 in 10.0 mi East 3.5 mph - N/A   Clear
4:56 PM 75.6 °F - 71.2 °F 86% 29.94 in 10.0 mi East 3.5 mph - N/A   Clear
5:18 PM 73.9 °F - 70.5 °F 89% 29.95 in 10.0 mi Calm Calm - N/A Thunderstorm Clear
5:36 PM 73.4 °F - 70.0 °F 89% 29.96 in 10.0 mi SW 12.7 mph 20.7 mph N/A Thunderstorm Mostly Cloudy